Time,TemperatureF,DewpointF,PressureIn,WindDirection,WindDirectionDegrees,WindSpeedMPH,WindSpeedGustMPH,Humidity,HourlyPrecipIn,Conditions,Clouds,dailyrainin,SoftwareType,DateUTC
2013-02-26 00:15:00,27.9,22.2,30.02,ESE,112,2.7,-999.0,79,-99.99,,,0.00,Acu-Link.com,2013-02-26 05:15:00,
2013-02-26 00:37:00,27.3,21.7,30.02,ESE,112,0.0,-999.0,79,-99.99,,,0.00,Acu-Link.com,2013-02-26 05:37:00,
2013-02-26 00:54:00,26.8,21.5,30.01,East,90,1.7,-999.0,80,-99.99,,,0.00,Acu-Link.com,2013-02-26 05:54:00,
2013-02-26 01:21:00,26.2,21.2,30.02,ESE,112,0.0,-999.0,81,-99.99,,,0.00,Acu-Link.com,2013-02-26 06:21:00,
2013-02-26 01:48:00,26.1,21.4,30.00,SE,135,2.2,-999.0,82,-99.99,,,0.00,Acu-Link.com,2013-02-26 06:48:00,
2013-02-26 02:15:00,26.4,21.1,30.00,NE,45,2.2,-999.0,80,-99.99,,,0.00,Acu-Link.com,2013-02-26 07:15:00,
2013-02-26 02:48:00,26.2,20.9,30.00,SSE,157,4.7,-999.0,80,-99.99,,,0.00,Acu-Link.com,2013-02-26 07:48:00,
2013-02-26 03:30:00,27.3,21.4,29.99,ESE,112,7.3,-999.0,78,-99.99,,,0.00,Acu-Link.com,2013-02-26 08:30:00,
2013-02-26 03:54:00,27.3,21.4,29.98,ESE,112,3.2,-999.0,78,-99.99,,,0.00,Acu-Link.com,2013-02-26 08:54:00,
2013-02-26 07:04:00,28.0,22.0,29.90,ESE,112,2.7,-999.0,78,-99.99,,,0.00,Acu-Link.com,2013-02-26 12:04:00,
2013-02-26 07:19:00,28.0,22.0,29.89,ESE,112,4.7,-999.0,78,-99.99,,,0.00,Acu-Link.com,2013-02-26 12:19:00,
2013-02-26 07:35:00,28.2,22.2,29.89,ESE,112,3.2,-999.0,78,-99.99,,,0.00,Acu-Link.com,2013-02-26 12:35:00,
2013-02-26 07:58:00,28.6,22.6,29.89,ENE,67,3.7,-999.0,78,-99.99,,,0.00,Acu-Link.com,2013-02-26 12:58:00,
2013-02-26 08:34:00,29.1,22.8,29.87,ESE,112,3.7,-999.0,77,-99.99,,,0.00,Acu-Link.com,2013-02-26 13:34:00,
2013-02-26 08:55:00,29.5,22.9,29.88,ESE,112,4.2,-999.0,76,-99.99,,,0.00,Acu-Link.com,2013-02-26 13:55:00,
2013-02-26 09:23:00,30.7,23.1,29.85,South,180,6.8,-999.0,73,-99.99,,,0.00,Acu-Link.com,2013-02-26 14:23:00,
2013-02-26 09:52:00,30.9,23.6,29.83,ENE,67,4.7,-999.0,74,-99.99,,,0.00,Acu-Link.com,2013-02-26 14:52:00,
2013-02-26 10:12:00,31.3,23.7,29.81,ESE,112,2.7,-999.0,73,-99.99,,,0.00,Acu-Link.com,2013-02-26 15:12:00,
2013-02-26 10:35:00,32.2,23.9,29.77,ENE,67,5.8,-999.0,71,-99.99,,,0.00,Acu-Link.com,2013-02-26 15:35:00,
2013-02-26 10:53:00,32.9,24.2,29.78,ESE,112,4.7,-999.0,70,-99.99,,,0.00,Acu-Link.com,2013-02-26 15:53:00,
2013-02-26 11:16:00,34.0,24.9,29.78,ESE,112,4.2,-999.0,69,-99.99,,,0.00,Acu-Link.com,2013-02-26 16:16:00,
2013-02-26 11:33:00,34.7,25.2,29.75,ESE,112,4.2,-999.0,68,-99.99,,,0.00,Acu-Link.com,2013-02-26 16:33:00,
2013-02-26 11:52:00,35.1,25.3,29.74,East,90,6.8,-999.0,67,-99.99,,,0.00,Acu-Link.com,2013-02-26 16:52:00,
2013-02-26 12:07:00,34.9,25.1,29.73,SSW,202,5.3,-999.0,67,-99.99,,,0.00,Acu-Link.com,2013-02-26 17:07:00,
2013-02-26 12:22:00,35.2,25.4,29.72,ESE,112,4.2,-999.0,67,-99.99,,,0.00,Acu-Link.com,2013-02-26 17:22:00,
2013-02-26 12:37:00,35.4,25.6,29.71,East,90,6.8,-999.0,67,-99.99,,,0.00,Acu-Link.com,2013-02-26 17:37:00,
2013-02-26 12:53:00,36.1,26.2,29.69,ESE,112,6.3,-999.0,67,-99.99,,,0.00,Acu-Link.com,2013-02-26 17:53:00,
2013-02-26 13:08:00,36.3,26.4,29.67,ESE,112,4.7,-999.0,67,-99.99,,,0.00,Acu-Link.com,2013-02-26 18:08:00,
2013-02-26 13:24:00,36.5,26.6,29.67,ESE,112,7.8,-999.0,67,-99.99,,,0.00,Acu-Link.com,2013-02-26 18:24:00,
2013-02-26 13:41:00,36.3,27.1,29.67,ESE,112,5.8,-999.0,69,-99.99,,,0.00,Acu-Link.com,2013-02-26 18:41:00,
2013-02-26 14:05:00,35.4,28.0,29.63,ESE,112,5.3,-999.0,74,-99.99,,,0.00,Acu-Link.com,2013-02-26 19:05:00,
2013-02-26 14:20:00,34.3,29.4,29.60,East,90,4.2,-999.0,82,-99.99,,,0.01,Acu-Link.com,2013-02-26 19:20:00,
2013-02-26 14:36:00,33.8,29.8,29.59,NE,45,7.3,-999.0,85,-99.99,,,0.01,Acu-Link.com,2013-02-26 19:36:00,
2013-02-26 14:55:00,33.6,29.9,29.58,South,180,3.2,-999.0,86,-99.99,,,0.02,Acu-Link.com,2013-02-26 19:55:00,
2013-02-26 15:12:00,33.4,30.0,29.57,South,180,4.7,-999.0,87,-99.99,,,0.02,Acu-Link.com,2013-02-26 20:12:00,
2013-02-26 15:40:00,33.1,30.8,29.56,South,180,5.8,-999.0,91,-99.99,,,0.02,Acu-Link.com,2013-02-26 20:40:00,
2013-02-26 16:01:00,33.1,31.0,29.56,East,90,3.2,-999.0,92,-99.99,,,0.02,Acu-Link.com,2013-02-26 21:01:00,
2013-02-26 16:16:00,33.1,31.3,29.58,ESE,112,5.3,-999.0,93,-99.99,,,0.02,Acu-Link.com,2013-02-26 21:16:00,
2013-02-26 16:33:00,32.9,31.4,29.57,East,90,7.8,-999.0,94,-99.99,,,0.02,Acu-Link.com,2013-02-26 21:33:00,
2013-02-26 16:48:00,32.9,31.4,29.56,East,90,5.8,-999.0,94,-99.99,,,0.02,Acu-Link.com,2013-02-26 21:48:00,
2013-02-26 17:03:00,32.7,31.7,29.56,ESE,112,6.3,-999.0,96,-99.99,,,0.02,Acu-Link.com,2013-02-26 22:03:00,
2013-02-26 17:19:00,32.5,32.0,29.55,SE,135,4.2,-999.0,98,-99.99,,,0.02,Acu-Link.com,2013-02-26 22:19:00,
2013-02-26 17:35:00,32.5,32.0,29.55,ENE,67,2.7,-999.0,98,-99.99,,,0.02,Acu-Link.com,2013-02-26 22:35:00,
2013-02-26 17:51:00,32.5,32.0,29.55,ESE,112,4.7,-999.0,98,-99.99,,,0.02,Acu-Link.com,2013-02-26 22:51:00,
2013-02-26 18:06:00,32.5,32.3,29.53,ESE,112,2.7,-999.0,99,-99.99,,,0.02,Acu-Link.com,2013-02-26 23:06:00,
2013-02-26 18:33:00,32.5,32.3,29.52,ESE,112,6.8,-999.0,99,-99.99,,,0.02,Acu-Link.com,2013-02-26 23:33:00,
2013-02-26 18:48:00,32.5,32.3,29.52,ESE,112,5.3,-999.0,99,-99.99,,,0.02,Acu-Link.com,2013-02-26 23:48:00,
2013-02-26 19:03:00,32.4,32.2,29.51,East,90,4.7,-999.0,99,-99.99,,,0.02,Acu-Link.com,2013-02-27 00:03:00,
2013-02-26 19:18:00,32.4,32.2,29.51,NE,45,2.7,-999.0,99,-99.99,,,0.02,Acu-Link.com,2013-02-27 00:18:00,
2013-02-26 19:35:00,32.4,32.2,29.51,ESE,112,3.7,-999.0,99,-99.99,,,0.02,Acu-Link.com,2013-02-27 00:35:00,
2013-02-26 19:50:00,32.4,32.2,29.50,NE,45,2.7,-999.0,99,-99.99,,,0.02,Acu-Link.com,2013-02-27 00:50:00,
2013-02-26 20:08:00,32.4,32.2,29.49,East,90,3.7,-999.0,99,-99.99,,,0.02,Acu-Link.com,2013-02-27 01:08:00,
2013-02-26 20:23:00,32.4,32.2,29.49,ENE,67,2.7,-999.0,99,-99.99,,,0.02,Acu-Link.com,2013-02-27 01:23:00,
2013-02-26 20:38:00,32.4,32.2,29.49,NE,45,3.7,-999.0,99,-99.99,,,0.02,Acu-Link.com,2013-02-27 01:38:00,
2013-02-26 20:54:00,32.4,32.2,29.48,ENE,67,3.2,-999.0,99,-99.99,,,0.02,Acu-Link.com,2013-02-27 01:54:00,
2013-02-26 21:09:00,32.4,32.2,29.47,ESE,112,3.2,-999.0,99,-99.99,,,0.02,Acu-Link.com,2013-02-27 02:09:00,
2013-02-26 21:40:00,32.4,32.2,29.46,NNE,22,4.2,-999.0,99,-99.99,,,0.02,Acu-Link.com,2013-02-27 02:40:00,
2013-02-26 21:55:00,32.4,32.2,29.46,NE,45,1.7,-999.0,99,-99.99,,,0.02,Acu-Link.com,2013-02-27 02:55:00,
2013-02-26 22:15:00,32.4,32.2,29.45,ENE,67,2.2,-999.0,99,-99.99,,,0.02,Acu-Link.com,2013-02-27 03:15:00,
2013-02-26 22:42:00,32.4,32.2,29.44,ESE,112,2.7,-999.0,99,-99.99,,,0.02,Acu-Link.com,2013-02-27 03:42:00,
2013-02-26 23:02:00,32.4,32.2,29.42,ENE,67,2.2,-999.0,99,-99.99,,,0.02,Acu-Link.com,2013-02-27 04:02:00,
2013-02-26 23:19:00,32.4,32.2,29.42,ESE,112,1.7,-999.0,99,-99.99,,,0.02,Acu-Link.com,2013-02-27 04:19:00,
2013-02-26 23:35:00,32.4,32.2,29.41,ESE,112,3.2,-999.0,99,-99.99,,,0.02,Acu-Link.com,2013-02-27 04:35:00,